Location: La Trinit�
(48.1620°N, 3.4512°W)
Time: 17:44:59
(UTC+00:00)

USA 290 - Pass Details

Date: 08 May 2021
Orbit: 400 x 415 km, 73.6° (Epoch: 12 May)

Event Time Altitude Azimuth Distance (km) Brightness Sun altitude
Rises 20:55:26 0° 335° (NNW) 2,355 7.5 -11.4°
Reaches altitude 10° 20:57:30 10° 334° (NNW) 1,486 6.3 -11.7°
Maximum altitude 21:00:44 76° 250° (WSW) 426 2.3 -12.1°
Enters shadow 21:02:59 18° 165° (SSE) 1,066 3.8 -12.3°
